Location: Berduj
(43.0019°N, 22.3781°E)
Time: 01:42:38
(UTC+00:00)

Daily predictions for brighter satellites

Satellite Brightness Start Highest point End
(mag) Time Altitude Azimuth Time Altitude Azimuth Time Altitude Azimuth
ADEOS II 4.0 00:35:12 10° NNE 00:37:24 25° NNE 00:37:24 25° NNE
Cosmos 1697 Rocket 4.4 00:59:12 25° N 00:59:12 25° N 01:01:44 10° NNE
Cosmos 1980 Rocket 3.4 01:05:32 36° NNE 01:05:32 36° NNE 01:08:50 10° NNE
Cosmos 2263 Rocket 4.0 01:01:35 10° NNW 01:03:48 24° N 01:03:48 24° N
Cosmos 2322 Rocket 3.5 01:12:30 33° ESE 01:12:49 33° ESE 01:17:51 10° NE
Lacrosse 5 3.7 01:22:28 24° N 01:22:28 24° N 01:25:33 10° NNE
SL-16 R/B 2.8 01:24:46 51° ESE 01:24:46 51° ESE 01:30:09 10° NE
Resurs 1-4 Rocket 4.3 01:25:48 10° NNW 01:26:57 15° NNW 01:26:57 15° NNW
CZ-2D R/B 4.3 01:32:31 10° NNW 01:33:36 14° NNW 01:33:36 14° NNW
Cosmos 1763 Rocket 3.7 01:45:12 68° ESE 01:45:20 69° ESE 01:50:36 10° NNE
USA 267 3.1 01:41:56 10° NE 01:48:30 90° NNW 01:49:37 65° SW
ARIANE 5 R/B 2.9 01:46:10 10° N 01:50:05 51° NNW 01:50:05 51° NNW
NOSS 3-3 (A) 4.1 01:51:32 55° NW 01:51:38 55° NW 01:58:09 10° NNE
NOSS 3-3 (C) 4.1 01:51:39 55° NW 01:51:45 55° NW 01:58:14 10° NNE
Cosmos 1707 Rocket 4.2 01:55:16 48° ESE 01:55:44 50° E 01:59:58 10° NNE
DEBRIS 4.4 01:57:32 26° ESE 01:57:32 26° ESE 01:59:51 10° ESE
Meteor 1-5 Rocket 3.9 01:54:22 10° NNW 01:59:44 80° W 02:00:06 75° SSW
Cosmos 540 Rocket 4.3 01:59:02 29° SSE 02:01:15 47° ESE 02:06:13 10° NNE
MSX 3.8 01:57:42 10° NNE 02:03:31 85° ESE 02:05:30 44° S
ERS-2 4.2 02:03:35 10° SE 02:06:46 29° ENE 02:09:58 10° N
Cosmos 44 Rocket 3.5 02:06:04 54° SSE 02:06:46 61° ESE 02:11:33 10° NE
Gbstr 26 Del rocket 4.3 02:03:39 35° WNW 02:07:17 68° SW 02:14:31 10° SE
ATLAS 2AS CENTAUR R/B 3.3 02:00:27 10° NNW 02:07:52 58° NE 02:14:40 10° SE
IRIDIUM 106 4.2 02:03:58 10° N 02:09:13 89° W 02:11:36 34° S
Meteor 1-10 Rocket 4.2 02:09:13 56° SW 02:10:24 72° WNW 02:16:19 10° N
Meteor 2-6 Rocket 4.3 02:10:06 57° W 02:10:28 58° WNW 02:16:16 10° N
Cosmos 990 Rocket 3.8 02:06:00 10° NNW 02:11:12 70° WSW 02:16:22 10° S
Cosmos 1733 Rocket 4.3 02:07:14 10° N 02:11:22 41° ENE 02:15:26 10° SSE
Cosmos 2333 Rocket 4.5 02:08:31 10° SSE 02:12:49 22° E 02:17:08 10° NE
PAYLOAD A 4.4 02:09:15 10° NNE 02:13:51 54° E 02:17:05 19° S
Landsat 5 3.6 02:13:41 10° SSE 02:18:12 83° ENE 02:22:39 10° NNW
ADEOS II 3.8 02:15:55 10° NNW 02:18:20 18° NW 02:18:20 18° NW
Cosmos 468 Rocket 4.1 02:19:42 52° W 02:20:07 54° WNW 02:25:17 10° NNE
Cosmos 1570 Rocket 4.2 02:18:01 28° S 02:20:50 71° ESE 02:26:11 10° NNE
Cosmos 967 Rocket 4.4 02:19:11 43° SW 02:21:28 77° WNW 02:27:54 10° NNE
IDEFIX/ARIANE 42P 2.8 02:17:06 10° N 02:22:08 46° WNW 02:22:24 46° W
SL-4 R/B 2.5 02:21:54 52° NW 02:22:25 55° NNW 02:27:06 10° NE
USA 234 3.5 02:16:16 10° ESE 02:22:44 69° NE 02:29:13 10° NW
CZ-2C R/B 3.1 02:20:26 10° N 02:23:31 50° NNW 02:23:31 50° NNW
PSLV R/B 3.8 02:22:05 10° NNE 02:26:15 66° ESE 02:28:45 23° S
CZ-4C R/B 4.4 02:21:09 10° NNW 02:27:36 36° NE 02:34:56 10° ESE
Cosmos 1862 Rocket 4.1 02:26:21 10° S 02:30:34 58° E 02:34:51 10° NNE
USA 276 3.3 02:30:55 35° N 02:31:25 37° NNE 02:34:27 10° E
CSL-04 DEB 4.4 02:27:18 10° S 02:31:37 76° WSW 02:36:02 10° NNW
Cosmos 1605 Rocket 4.4 02:29:22 10° NNW 02:35:14 39° W 02:37:19 31° SW
COSMOS 2441 4.5 02:30:58 10° N 02:35:46 54° WNW 02:37:12 39° WSW
H-2A R/B 2.0 02:31:36 10° S 02:35:58 67° WSW 02:40:27 10° NNW
Cosmos 1153 Rocket 4.5 02:30:06 10° NNW 02:36:21 60° W 02:42:29 10° S
Cosmos 2360 Rocket 2.2 02:33:12 23° SSW 02:36:54 86° ESE 02:42:36 10° NNE
ALOS 4.0 02:34:20 10° NNE 02:38:33 32° E 02:42:44 10° SSE
Cosmos 2016 Rocket 4.4 02:37:51 10° N 02:43:55 63° E 02:49:57 10° SSE
Meteor 1-4 Rocket 4.5 02:46:55 17° NW 02:46:55 17° NW 02:48:10 10° NNW
CZ-2C R/B 2.4 02:40:25 10° NNE 02:45:37 84° WNW 02:50:49 10° SSW
Cosmos 1000 Rocket 4.4 02:39:38 10° S 02:45:49 87° W 02:52:00 10° N
ATLAS CENTAUR R/B 4.0 02:38:53 10° NW 02:47:39 37° NNE 02:51:27 10° E
Cosmos 372 Rocket 4.0 02:43:02 10° NNW 02:48:12 79° ENE 02:53:18 10° SSE
Cosmos 1980 Rocket 4.1 02:47:19 13° NW 02:48:14 14° NW 02:51:02 10° NNW
Cosmos 2061 Rocket 4.4 02:44:01 10° N 02:50:29 71° E 02:56:52 10° SSE
Cosmos 1844 Rocket 2.7 02:49:41 10° NNW 02:55:22 85° ENE 03:01:02 10° SSE
Cosmos 2322 Rocket 2.8 02:54:21 27° WSW 02:56:45 38° WNW 03:02:04 10° N
Cosmos 1484 Rocket 3.7 02:55:04 10° NNE 02:59:00 52° E 03:02:53 10° S
Cosmos 1898 Rocket 4.3 02:54:32 10° NW 02:59:01 29° W 03:03:31 10° SSW
Cosmos 1666 4.3 02:57:36 10° NW 02:59:07 18° NW 02:59:07 18° NW
Meteor 1-11 Rocket 4.2 02:57:45 10° NNW 03:02:56 36° W 03:07:59 10° SSW
Cosmos 1844 3.7 02:58:19 10° NNW 03:03:55 82° ENE 03:09:28 10° SSE
X-37B 2.3 03:04:30 19° SSW 03:04:30 19° SSW 03:06:24 10° SSE
Lacrosse 5 4.1 03:02:39 10° NW 03:05:49 16° N 03:09:00 10° NE
Cosmos 1725 Rocket 4.1 03:00:23 10° N 03:06:35 78° E 03:12:45 10° SSE
Okean 1 3.4 03:04:28 10° S 03:08:30 84° E 03:12:34 10° N
SL-16 R/B 3.3 03:06:39 20° W 03:09:02 27° NW 03:13:48 10° N
Meteor 1-27 Rocket 4.3 03:05:04 15° SW 03:09:30 39° WNW 03:14:59 10° N
Intercosmos 25 2.9 03:06:00 10° S 03:09:51 83° W 03:13:03 10° N
COSMO-SKYMED 1 4.3 03:05:53 10° SE 03:09:51 36° ENE 03:13:50 10° N
Meteor 1-31 Rocket 3.4 03:08:04 10° NNE 03:11:53 58° E 03:15:41 10° S
Cosmos 2298 Rocket 4.1 03:07:08 10° NNW 03:12:29 86° ENE 03:17:46 10° SSE
Cosmos 2100 Rocket 4.2 03:09:17 10° NNW 03:15:22 48° W 03:21:24 10° SSW
Cosmos 1437 Rocket 2.6 03:11:47 10° SSW 03:15:32 64° WNW 03:19:22 10° N
deb Chang Zheng 4 3.4 03:13:00 10° N 03:17:17 79° WNW 03:21:32 10° SSW
Cosmos 1937 Rocket 4.3 03:14:16 10° NW 03:18:29 26° W 03:22:42 10° SSW
Cosmos 1459 Rocket 4.1 03:13:46 10° NNW 03:19:32 47° W 03:25:15 10° SSW
Cosmos 841 Rocket 4.2 03:18:31 15° WSW 03:22:16 34° WNW 03:27:04 10° N
Cosmos 2219 Rocket 2.4 03:19:12 10° SSW 03:24:51 77° ESE 03:30:33 10° NNE
Cosmos 1782 Rocket 4.5 03:20:49 10° N 03:25:13 54° E 03:29:34 10° SSE
Cosmos 1802 Rocket 4.1 03:19:38 10° NNW 03:25:38 53° W 03:31:42 10° SSW
Cosmos 1536 4.1 03:22:40 10° NW 03:25:40 20° W 03:28:39 10° SW
Cosmos 1908 Rocket 3.5 03:22:01 10° N 03:26:30 80° W 03:30:58 10° S
Cosmos 1703 Rocket 3.6 03:22:31 10° S 03:26:51 84° E 03:31:13 10° N
Okean 1-7 3.1 03:23:31 10° S 03:27:46 77° E 03:32:01 10° N
USA 267 4.1 03:25:12 10° NE 03:31:05 37° NNW 03:36:57 10° W
Meteor 2-4 Rocket 4.4 03:26:26 10° S 03:31:45 57° E 03:37:01 10° NNE
Cosmos 1125 Rocket 3.7 03:26:35 10° NNW 03:31:54 79° ENE 03:37:08 10° SSE
Cosmos 2123 Rocket 4.1 03:28:18 10° SSW 03:34:27 61° W 03:40:43 10° N
CZ-4B R/B 3.2 03:31:12 10° NNE 03:34:46 60° E 03:38:18 10° S
NOSS 3-4 (A) 4.3 03:28:18 10° NW 03:34:56 41° WSW 03:42:09 10° S
NOSS 3-4 (C) 4.3 03:28:24 10° NW 03:35:03 41° WSW 03:42:17 10° S
ADEOS Rocket 3.4 03:29:41 10° S 03:35:58 43° W 03:41:43 10° NNW
CZ-4B R/B 2.0 03:36:10 10° SSW 03:39:02 30° W 03:41:59 10° NNW
CZ-4B R/B 4.1 03:34:58 10° N 03:39:22 68° WNW 03:43:49 10° SSW
Cosmos 2150 Rocket 4.1 03:34:41 10° NNW 03:40:03 60° WSW 03:45:19 10° S
ERS-2 3.5 03:37:41 10° SW 03:40:20 19° W 03:43:00 10° NW
Cosmos 2237 Rocket 3.9 03:39:27 10° S 03:44:35 37° ESE 03:49:43 10° NE
COSMOS 2428 2.7 03:41:48 10° SSW 03:47:31 82° WNW 03:53:18 10° NNE
Cosmos 1733 Rocket 4.5 03:46:00 10° NW 03:48:48 17° W 03:51:35 10° SW
Cosmos 1544 3.7 03:47:09 10° NNW 03:50:23 32° W 03:53:37 10° SSW
Cosmos 1743 3.8 03:48:36 10° NW 03:51:38 23° W 03:54:40 10° SW
METEOR-M 4.2 03:48:04 10° N 03:53:20 60° WNW 03:58:34 10° SSW
RESURS DK-1 3.9 03:52:18 10° NNW 03:56:15 40° ENE 04:00:11 10° SE
ADEOS 4.2 03:51:36 10° N 03:56:22 37° WNW 04:01:07 10° SW
Meteor 2-11 Rocket 4.4 03:50:25 10° NNW 03:56:33 77° W 04:02:37 10° S
Cosmos 2333 Rocket 2.4 03:50:57 10° SW 03:56:37 57° WNW 04:02:19 10° NNE
ATLAS 2AS CENTAUR R/B 3.4 03:52:06 10° NW 03:58:24 32° WSW 04:04:16 10° S
